Back to catalog

ARIANE 2 DEB

LostGTO
NORAD 33561·DEBRIS·🇫🇷 France

Launched Jan 27, 1989 from Guiana Space Centre

Loading…

TLE

StaleSource: Space-Track

Epoch: Jul 5, 2025, 10:33 UTC

1 33561U 89006BD  25186.43971828 -.00000105  00000-0  00000-0 0  9992
2 33561   9.3072   3.7623 6985237 234.5818  18.5741  2.22242804  6124

Track ARIANE 2 DEB in real time with AllMySat

Download on the App Store